Radiation Dose at Monitoring Post of Fukushima Daini Nuclear Power Station
Date,Time,MP-1(microSv/h),MP-2(microSv/h),MP-3(microSv/h),MP-4(microSv/h),MP-5(microSv/h),MP-6(microSv/h),MP-7(microSv/h),Wind Direction,Wind Velocity(m/s),Rain
2021/06/24,00:00,0.165,0.152,0.242,0.234,0.230,0.128,0.080,north-northwest,3.2,No
2021/06/24,00:10,0.163,0.152,0.241,0.232,0.231,0.128,0.079,north-northwest,1.7,No
2021/06/24,00:20,0.166,0.152,0.242,0.234,0.232,0.128,0.080,north-northwest,2.4,No
2021/06/24,00:30,0.163,0.152,0.241,0.232,0.231,0.128,0.080,north-northwest,2.6,No
2021/06/24,00:40,0.165,0.151,0.243,0.234,0.232,0.129,0.080,northwest,2.4,No
2021/06/24,00:50,0.164,0.152,0.242,0.234,0.230,0.127,0.080,northwest,2.4,No
2021/06/24,01:00,0.165,0.153,0.242,0.233,0.233,0.129,0.081,northwest,2.8,No
2021/06/24,01:10,0.165,0.151,0.241,0.233,0.230,0.128,0.080,north-northwest,2.5,No
2021/06/24,01:20,0.164,0.153,0.243,0.233,0.232,0.129,0.080,north,2.0,No
2021/06/24,01:30,0.164,0.152,0.240,0.234,0.231,0.128,0.081,north-northwest,2.0,No
2021/06/24,01:40,0.164,0.153,0.243,0.231,0.233,0.128,0.080,north-northeast,1.0,No
2021/06/24,01:50,0.166,0.151,0.242,0.234,0.232,0.129,0.080,north,2.4,No
2021/06/24,02:00,0.163,0.153,0.243,0.233,0.231,0.128,0.080,north-northwest,2.9,Yes
2021/06/24,02:10,0.165,0.151,0.241,0.234,0.232,0.129,0.081,north-northwest,1.0,No
2021/06/24,02:20,0.163,0.153,0.243,0.233,0.231,0.128,0.079,north-northwest,3.4,No
2021/06/24,02:30,0.165,0.152,0.242,0.234,0.233,0.129,0.081,north-northwest,3.8,No
2021/06/24,02:40,0.164,0.152,0.242,0.232,0.231,0.128,0.080,north-northwest,4.1,No
2021/06/24,02:50,0.165,0.151,0.242,0.235,0.234,0.128,0.080,north-northwest,3.8,No
2021/06/24,03:00,0.165,0.152,0.244,0.233,0.230,0.129,0.080,north-northwest,2.7,No
2021/06/24,03:10,0.164,0.152,0.241,0.235,0.234,0.129,0.081,north-northwest,2.8,No
2021/06/24,03:20,0.165,0.153,0.244,0.233,0.231,0.130,0.080,north-northwest,2.3,No
2021/06/24,03:30,0.164,0.153,0.241,0.235,0.233,0.128,0.081,west-northwest,1.0,No
2021/06/24,03:40,0.165,0.152,0.242,0.234,0.231,0.128,0.080,-,CALM,No
2021/06/24,03:50,0.164,0.152,0.243,0.233,0.232,0.129,0.081,north-northwest,1.6,No
2021/06/24,04:00,0.166,0.152,0.244,0.233,0.232,0.128,0.080,north-northwest,2.3,No
2021/06/24,04:10,0.164,0.152,0.242,0.234,0.231,0.130,0.080,north,2.0,Yes
2021/06/24,04:20,0.164,0.152,0.243,0.234,0.233,0.128,0.081,-,CALM,Yes
2021/06/24,04:30,0.165,0.153,0.243,0.234,0.230,0.129,0.081,north,0.8,Yes
2021/06/24,04:40,0.165,0.153,0.244,0.234,0.234,0.129,0.081,west-southwest,1.9,No
2021/06/24,04:50,0.165,0.153,0.244,0.234,0.232,0.129,0.081,west,2.3,Yes
2021/06/24,05:00,0.166,0.153,0.243,0.236,0.234,0.129,0.082,-,CALM,Yes
2021/06/24,05:10,0.166,0.153,0.243,0.234,0.233,0.131,0.082,-,CALM,Yes
2021/06/24,05:20,0.164,0.153,0.243,0.235,0.233,0.129,0.082,-,CALM,Yes
2021/06/24,05:30,0.167,0.154,0.243,0.234,0.233,0.130,0.081,west-northwest,1.5,Yes
2021/06/24,05:40,0.164,0.152,0.242,0.235,0.232,0.130,0.082,west-northwest,1.6,Yes
2021/06/24,05:50,0.166,0.154,0.243,0.235,0.233,0.130,0.082,northwest,2.1,Yes
2021/06/24,06:00,0.165,0.154,0.243,0.237,0.232,0.130,0.082,north-northwest,2.8,Yes
2021/06/24,06:10,0.168,0.155,0.244,0.234,0.234,0.130,0.082,north-northwest,2.7,Yes
2021/06/24,06:20,0.166,0.154,0.244,0.236,0.231,0.131,0.083,north-northeast,2.3,Yes
2021/06/24,06:30,0.167,0.155,0.244,0.234,0.234,0.131,0.083,northeast,2.3,Yes
2021/06/24,06:40,0.166,0.155,0.243,0.234,0.232,0.132,0.082,northeast,3.0,No
2021/06/24,06:50,0.166,0.153,0.243,0.234,0.232,0.130,0.082,northeast,1.0,Yes
2021/06/24,07:00,0.167,0.154,0.241,0.234,0.232,0.130,0.082,northeast,1.8,Yes
2021/06/24,07:10,0.164,0.153,0.243,0.234,0.231,0.131,0.082,east-northeast,1.4,Yes
2021/06/24,07:20,0.165,0.153,0.240,0.234,0.232,0.129,0.081,northeast,1.6,Yes
2021/06/24,07:30,0.164,0.153,0.243,0.234,0.230,0.130,0.081,-,CALM,Yes
2021/06/24,07:40,0.166,0.152,0.241,0.233,0.233,0.128,0.082,-,CALM,No
2021/06/24,07:50,0.165,0.153,0.242,0.235,0.231,0.129,0.081,northeast,0.7,No
2021/06/24,08:00,0.164,0.152,0.241,0.232,0.230,0.129,0.081,north-northeast,0.8,No
2021/06/24,08:10,0.164,0.151,0.240,0.233,0.233,0.129,0.081,northeast,1.1,No
2021/06/24,08:20,0.163,0.152,0.243,0.233,0.230,0.129,0.081,northeast,0.6,No
2021/06/24,08:30,0.163,0.151,0.240,0.231,0.229,0.128,0.080,northeast,1.1,No
2021/06/24,08:40,0.165,0.151,0.240,0.233,0.232,0.127,0.081,-,CALM,No
2021/06/24,08:50,0.164,0.152,0.242,0.233,0.230,0.128,0.080,east-northeast,0.9,No
2021/06/24,09:00,0.165,0.151,0.239,0.232,0.230,0.128,0.080,east,0.9,No
2021/06/24,09:10,0.164,0.151,0.241,0.234,0.233,0.127,0.081,east-northeast,0.7,No
2021/06/24,09:20,0.163,0.152,0.242,0.233,0.231,0.129,0.081,east-northeast,0.6,No
2021/06/24,09:30,0.165,0.150,0.240,0.231,0.229,0.128,0.081,east,1.9,No
2021/06/24,09:40,0.164,0.152,0.242,0.232,0.230,0.129,0.080,east,2.1,No
2021/06/24,09:50,0.163,0.153,0.244,0.233,0.233,0.128,0.080,east,1.8,No
2021/06/24,10:00,0.164,0.150,0.240,0.232,0.230,0.129,0.079,east-northeast,2.0,No
2021/06/24,10:10,0.165,0.152,0.240,0.233,0.229,0.128,0.080,east-northeast,1.9,No
2021/06/24,10:20,0.163,0.152,0.243,0.234,0.232,0.128,0.081,east-northeast,1.9,No
2021/06/24,10:30,0.163,0.151,0.241,0.233,0.232,0.128,0.080,east-northeast,1.9,No
2021/06/24,10:40,0.166,0.151,0.239,0.231,0.230,0.127,0.079,east,2.2,No
2021/06/24,10:50,0.163,0.152,0.243,0.232,0.228,0.128,0.080,east,2.2,No
2021/06/24,11:00,0.163,0.151,0.243,0.235,0.232,0.129,0.080,east,1.7,No
2021/06/24,11:10,0.165,0.151,0.240,0.234,0.232,0.129,0.080,east,2.1,No
2021/06/24,11:20,0.163,0.153,0.244,0.232,0.230,0.129,0.080,east,2.4,No
2021/06/24,11:30,0.164,0.151,0.241,0.235,0.233,0.128,0.081,east,2.1,No
2021/06/24,11:40,0.166,0.153,0.241,0.234,0.233,0.127,0.080,east-southeast,1.5,No
2021/06/24,11:50,0.163,0.151,0.243,0.233,0.231,0.129,0.081,southeast,1.0,Yes
2021/06/24,12:00,0.164,0.151,0.243,0.234,0.232,0.129,0.081,southeast,0.8,Yes
2021/06/24,12:10,0.165,0.154,0.242,0.234,0.234,0.128,0.080,southeast,0.7,Yes
2021/06/24,12:20,0.164,0.151,0.244,0.235,0.231,0.129,0.081,-,CALM,Yes
2021/06/24,12:30,0.166,0.155,0.242,0.236,0.235,0.129,0.081,east,1.4,Yes
2021/06/24,12:40,0.166,0.154,0.244,0.234,0.233,0.129,0.081,east,1.7,No
2021/06/24,12:50,0.166,0.153,0.243,0.236,0.231,0.129,0.082,southeast,1.1,No
2021/06/24,13:00,0.167,0.153,0.241,0.235,0.233,0.129,0.081,east,0.6,No
2021/06/24,13:10,0.164,0.154,0.244,0.232,0.232,0.129,0.080,east-northeast,1.1,No
2021/06/24,13:20,0.164,0.152,0.243,0.234,0.230,0.130,0.081,east-northeast,1.0,No
2021/06/24,13:30,0.165,0.153,0.240,0.236,0.229,0.129,0.081,east-southeast,1.2,No
2021/06/24,13:40,0.164,0.152,0.239,0.233,0.231,0.128,0.080,east-southeast,1.0,No
2021/06/24,13:50,0.163,0.150,0.243,0.232,0.233,0.128,0.081,east,0.9,No
2021/06/24,14:00,0.165,0.152,0.242,0.232,0.233,0.130,0.081,east,2.1,No
2021/06/24,14:10,0.165,0.153,0.241,0.235,0.230,0.128,0.081,east-northeast,1.7,No
2021/06/24,14:20,0.164,0.152,0.240,0.233,0.229,0.129,0.080,east-northeast,1.0,No
2021/06/24,14:30,0.164,0.150,0.242,0.233,0.229,0.129,0.081,east,1.2,No
2021/06/24,14:40,0.165,0.152,0.243,0.231,0.233,0.129,0.080,east,2.1,No
2021/06/24,14:50,0.165,0.153,0.241,0.232,0.234,0.128,0.080,east,1.1,No
2021/06/24,15:00,0.163,0.151,0.240,0.235,0.232,0.128,0.080,east,1.2,No
2021/06/24,15:10,0.164,0.152,0.243,0.235,0.230,0.129,0.081,east-southeast,1.3,No
2021/06/24,15:20,0.165,0.153,0.242,0.234,0.230,0.129,0.080,east,1.3,No
2021/06/24,15:30,0.164,0.152,0.241,0.236,0.234,0.128,0.080,east,1.3,No
2021/06/24,15:40,0.165,0.152,0.244,0.236,0.232,0.129,0.081,east,1.3,Yes
2021/06/24,15:50,0.165,0.153,0.242,0.235,0.232,0.129,0.081,east,1.5,Yes
2021/06/24,16:00,0.164,0.152,0.243,0.236,0.234,0.128,0.080,east-northeast,1.6,No
2021/06/24,16:10,0.165,0.153,0.243,0.234,0.234,0.129,0.080,east-northeast,1.0,No
2021/06/24,16:20,0.165,0.151,0.241,0.233,0.231,0.128,0.080,east-northeast,1.2,No
2021/06/24,16:30,0.164,0.152,0.244,0.235,0.234,0.128,0.080,northeast,0.9,No
2021/06/24,16:40,0.165,0.152,0.242,0.234,0.231,0.129,0.081,east-southeast,1.0,No
2021/06/24,16:50,0.165,0.152,0.243,0.236,0.231,0.129,0.081,east-southeast,0.6,No
2021/06/24,17:00,0.164,0.153,0.244,0.234,0.234,0.129,0.080,-,CALM,No
2021/06/24,17:10,0.165,0.152,0.242,0.234,0.232,0.129,0.081,-,CALM,No
2021/06/24,17:20,0.165,0.152,0.244,0.236,0.233,0.128,0.081,-,CALM,No
2021/06/24,17:30,0.165,0.152,0.241,0.234,0.232,0.129,0.081,-,CALM,No
2021/06/24,17:40,0.165,0.152,0.243,0.235,0.231,0.128,0.079,-,CALM,No
2021/06/24,17:50,0.164,0.152,0.241,0.235,0.234,0.129,0.081,south,0.9,Yes
2021/06/24,18:00,0.166,0.153,0.242,0.235,0.232,0.131,0.080,south-southeast,0.7,Yes
2021/06/24,18:10,0.166,0.155,0.245,0.236,0.236,0.130,0.082,south-southeast,1.4,Yes
2021/06/24,18:20,0.168,0.155,0.245,0.238,0.235,0.133,0.083,north-northeast,5.6,Yes
2021/06/24,18:30,0.170,0.158,0.249,0.240,0.237,0.134,0.085,-,CALM,Yes
2021/06/24,18:40,0.170,0.158,0.248,0.239,0.238,0.137,0.087,-,CALM,Yes
2021/06/24,18:50,0.172,0.161,0.249,0.242,0.238,0.138,0.089,southeast,2.9,Yes
2021/06/24,19:00,0.174,0.162,0.251,0.242,0.243,0.140,0.091,-,CALM,Yes
2021/06/24,19:10,0.176,0.164,0.252,0.243,0.240,0.141,0.093,south,2.1,Yes
2021/06/24,19:20,0.174,0.163,0.252,0.243,0.243,0.140,0.094,west-southwest,1.2,Yes
2021/06/24,19:30,0.176,0.164,0.252,0.245,0.241,0.141,0.093,-,CALM,Yes
2021/06/24,19:40,0.173,0.162,0.250,0.243,0.243,0.140,0.092,southwest,0.6,Yes
2021/06/24,19:50,0.176,0.162,0.251,0.243,0.240,0.140,0.092,northwest,1.3,Yes
2021/06/24,20:00,0.173,0.162,0.250,0.243,0.241,0.140,0.093,south,1.6,Yes
2021/06/24,20:10,0.175,0.163,0.251,0.242,0.241,0.140,0.094,south,1.4,Yes
2021/06/24,20:20,0.174,0.162,0.249,0.242,0.241,0.141,0.095,south-southwest,2.1,Yes
2021/06/24,20:30,0.173,0.162,0.249,0.242,0.242,0.139,0.092,south,2.1,No
2021/06/24,20:40,0.171,0.161,0.246,0.239,0.239,0.139,0.091,south-southeast,1.8,No
2021/06/24,20:50,0.170,0.159,0.247,0.238,0.238,0.136,0.089,-,CALM,No
2021/06/24,21:00,0.170,0.156,0.243,0.237,0.235,0.135,0.088,west-southwest,0.7,No
2021/06/24,21:10,0.167,0.156,0.245,0.235,0.236,0.133,0.085,south-southeast,1.0,No
2021/06/24,21:20,0.167,0.153,0.241,0.235,0.233,0.132,0.085,-,CALM,No
2021/06/24,21:30,0.166,0.154,0.242,0.233,0.235,0.133,0.084,south-southwest,1.5,No
2021/06/24,21:40,0.166,0.153,0.239,0.234,0.232,0.131,0.084,south-southwest,2.3,No
2021/06/24,21:50,0.166,0.153,0.240,0.232,0.232,0.130,0.083,south,2.1,Yes
2021/06/24,22:00,0.166,0.152,0.239,0.233,0.233,0.129,0.082,south,2.2,No
2021/06/24,22:10,0.163,0.151,0.241,0.230,0.231,0.129,0.082,south-southwest,1.3,No
2021/06/24,22:20,0.165,0.151,0.238,0.231,0.232,0.129,0.081,south-southwest,1.3,Yes
2021/06/24,22:30,0.163,0.152,0.240,0.229,0.230,0.129,0.082,south,1.7,No
2021/06/24,22:40,0.163,0.151,0.237,0.232,0.232,0.130,0.081,south-southwest,2.1,No
2021/06/24,22:50,0.162,0.151,0.240,0.230,0.230,0.130,0.082,south,1.3,Yes
2021/06/24,23:00,0.163,0.151,0.237,0.233,0.232,0.129,0.081,south-southwest,2.0,No
2021/06/24,23:10,0.164,0.152,0.239,0.230,0.230,0.130,0.081,south-southwest,2.0,No
2021/06/24,23:20,0.163,0.151,0.238,0.232,0.232,0.128,0.081,south-southwest,1.0,No
2021/06/24,23:30,0.164,0.152,0.239,0.231,0.230,0.129,0.082,south-southwest,1.2,No
2021/06/24,23:40,0.163,0.151,0.237,0.230,0.231,0.129,0.081,south,2.0,No
2021/06/24,23:50,0.164,0.152,0.239,0.230,0.232,0.129,0.081,south,1.9,No
